| time (UTC) | temp F | wind direction | speed MPH | gust MPH | rain 1hr in | rain 24hr in | rain mn in | humidity % | barometer mb |
| 20260509123034 | 69 | 0 | 1.0 | 4.0 | 0.00 | 0.06 | 0.00 | 93 | 1009.4 |
| 20260509121534 | 68 | 204 | 2.0 | 4.0 | 0.00 | 0.06 | 0.00 | 93 | 1009.4 |
| 20260509120037 | 69 | 208 | 1.0 | 2.0 | 0.00 | 0.06 | 0.00 | 93 | 1009.6 |
| 20260509114533 | 69 | 253 | 2.0 | 7.0 | 0.00 | 0.06 | 0.00 | 93 | 1009.7 |
| 20260509113029 | 69 | 266 | 1.0 | 4.0 | 0.00 | 0.06 | 0.00 | 93 | 1009.5 |
| 20260509111531 | 69 | 278 | 3.0 | 9.0 | 0.00 | 0.06 | 0.00 | 93 | 1009.3 |
| 20260509110035 | 69 | 298 | 3.0 | 12.0 | 0.00 | 0.06 | 0.00 | 94 | 1009.4 |
| 20260509104534 | 69 | 295 | 8.0 | 14.0 | 0.00 | 0.06 | 0.00 | 94 | 1009.2 |
| 20260509103036 | 69 | 297 | 4.0 | 8.0 | 0.00 | 0.06 | 0.00 | 93 | 1008.5 |
| 20260509101544 | 69 | 182 | 6.0 | 17.0 | 0.00 | 0.06 | 0.00 | 93 | 1007.4 |
| 20260509100028 | 69 | 204 | 7.0 | 13.0 | 0.00 | 0.06 | 0.00 | 93 | 1007.0 |
| 20260509094531 | 69 | 206 | 7.0 | 19.0 | 0.00 | 0.06 | 0.00 | 93 | 1006.7 |
| 20260509093031 | 68 | 171 | 8.0 | 17.0 | 0.00 | 0.06 | 0.00 | 93 | 1007.0 |
| 20260509091534 | 68 | 185 | 9.0 | 17.0 | 0.00 | 0.06 | 0.00 | 93 | 1006.8 |
| 20260509090034 | 68 | 189 | 8.0 | 16.0 | 0.00 | 0.06 | 0.00 | 93 | 1007.4 |
| 20260509084531 | 68 | 179 | 5.0 | 11.0 | 0.00 | 0.06 | 0.00 | 93 | 1008.0 |
| 20260509083030 | 68 | 193 | 4.0 | 12.0 | 0.00 | 0.06 | 0.00 | 92 | 1008.7 |
| 20260509081534 | 69 | 198 | 3.0 | 9.0 | 0.00 | 0.06 | 0.00 | 92 | 1009.3 |
| 20260509080035 | 69 | 223 | 4.0 | 9.0 | 0.00 | 0.06 | 0.00 | 92 | 1009.9 |
| 20260509074532 | 69 | 239 | 4.0 | 8.0 | 0.00 | 0.06 | 0.00 | 92 | 1010.7 |
| 20260509073049 | 69 | 259 | 2.0 | 6.0 | 0.00 | 0.06 | 0.00 | 92 | 1010.7 |
| 20260509071535 | 69 | 265 | 3.0 | 6.0 | 0.00 | 0.06 | 0.00 | 92 | 1010.6 |
| 20260509070032 | 69 | 200 | 2.0 | 4.0 | 0.00 | 0.06 | 0.00 | 91 | 1010.3 |
| 20260509064534 | 69 | 293 | 0.0 | 4.0 | 0.00 | 0.06 | 0.00 | 91 | 1010.7 |
| 20260509063032 | 69 | 0 | 0.0 | 3.0 | 0.00 | 0.06 | 0.00 | 91 | 1010.6 |
| 20260509061531 | 69 | 360 | 1.0 | 3.0 | 0.00 | 0.06 | 0.00 | 90 | 1010.7 |
| 20260509060044 | 69 | 0 | 0.0 | 0.0 | 0.00 | 0.06 | 0.00 | 90 | 1010.3 |
| 20260509054530 | 69 | 0 | 0.0 | 2.0 | 0.00 | 0.06 | 0.00 | 90 | 1009.9 |
| 20260509053035 | 70 | 175 | 1.0 | 3.0 | 0.00 | 0.06 | 0.00 | 90 | 1010.1 |
| 20260509051533 | 70 | 175 | 3.0 | 7.0 | 0.00 | 0.06 | 0.00 | 89 | 1009.9 |
| 20260509050034 | 70 | 180 | 3.0 | 5.0 | 0.00 | 0.06 | 0.00 | 88 | 1009.9 |
| 20260509044535 | 71 | 0 | 0.0 | 0.0 | 0.00 | 0.06 | 0.06 | 87 | 1010.4 |
| 20260509043035 | 71 | 0 | 0.0 | 5.0 | 0.00 | 0.06 | 0.06 | 87 | 1010.3 |
| 20260509041530 | 72 | 123 | 1.0 | 3.0 | 0.00 | 0.06 | 0.06 | 87 | 1010.1 |
| 20260509040030 | 72 | 162 | 3.0 | 5.0 | 0.00 | 0.06 | 0.06 | 87 | 1010.0 |
| 20260509034546 | 72 | 170 | 3.0 | 6.0 | 0.00 | 0.06 | 0.06 | 87 | 1009.9 |
| 20260509033033 | 72 | 141 | 2.0 | 5.0 | 0.00 | 0.06 | 0.06 | 86 | 1009.8 |
| 20260509031533 | 72 | 148 | 2.0 | 7.0 | 0.00 | 0.06 | 0.06 | 86 | 1009.4 |
| 20260509030033 | 72 | 141 | 3.0 | 7.0 | 0.00 | 0.06 | 0.06 | 86 | 1009.1 |
| 20260509024536 | 72 | 159 | 2.0 | 4.0 | 0.00 | 0.06 | 0.06 | 85 | 1009.1 |
| 20260509023035 | 72 | 155 | 0.0 | 3.0 | 0.00 | 0.06 | 0.06 | 85 | 1009.0 |
| 20260509021536 | 72 | 155 | 0.0 | 3.0 | 0.00 | 0.06 | 0.06 | 85 | 1009.0 |
| 20260509020039 | 72 | 0 | 1.0 | 4.0 | 0.00 | 0.06 | 0.06 | 84 | 1008.7 |
| 20260509014532 | 72 | 141 | 1.0 | 4.0 | 0.00 | 0.06 | 0.06 | 84 | 1008.6 |
| 20260509013038 | 72 | 159 | 2.0 | 4.0 | 0.00 | 0.06 | 0.06 | 83 | 1008.5 |
| 20260509011544 | 73 | 0 | 0.0 | 4.0 | 0.00 | 0.06 | 0.06 | 83 | 1008.5 |
| 20260509010037 | 73 | 158 | 1.0 | 4.0 | 0.00 | 0.06 | 0.06 | 82 | 1008.2 |
| 20260509004540 | 73 | 165 | 3.0 | 8.0 | 0.00 | 0.06 | 0.06 | 81 | 1007.8 |
| 20260509003032 | 74 | 166 | 2.0 | 4.0 | 0.00 | 0.06 | 0.06 | 80 | 1007.8 |
| 20260509001530 | 74 | 104 | 1.0 | 6.0 | 0.00 | 0.06 | 0.06 | 80 | 1007.8 |
| 20260509000034 | 74 | 159 | 3.0 | 7.0 | 0.00 | 0.06 | 0.06 | 80 | 1007.9 |
| 20260508234533 | 74 | 148 | 5.0 | 11.0 | 0.00 | 0.06 | 0.06 | 80 | 1007.9 |
| 20260508233031 | 74 | 164 | 7.0 | 11.0 | 0.00 | 0.06 | 0.06 | 79 | 1008.0 |
| 20260508231530 | 74 | 167 | 6.0 | 11.0 | 0.00 | 0.06 | 0.06 | 79 | 1008.1 |
| 20260508230033 | 74 | 159 | 5.0 | 14.0 | 0.00 | 0.06 | 0.06 | 78 | 1007.9 |
| 20260508224530 | 74 | 162 | 7.0 | 14.0 | 0.00 | 0.06 | 0.06 | 78 | 1008.1 |
| 20260508223041 | 75 | 148 | 7.0 | 13.0 | 0.00 | 0.06 | 0.06 | 77 | 1008.2 |
| 20260508221532 | 74 | 129 | 6.0 | 12.0 | 0.00 | 0.06 | 0.06 | 77 | 1008.3 |
| 20260508220034 | 73 | 148 | 4.0 | 6.0 | 0.00 | 0.06 | 0.06 | 78 | 1008.6 |
| 20260508214538 | 72 | 60 | 2.0 | 4.0 | 0.02 | 0.06 | 0.06 | 80 | 1008.9 |
| 20260508213036 | 71 | 175 | 7.0 | 16.0 | 0.06 | 0.06 | 0.06 | 82 | 1008.7 |
| 20260508211535 | 69 | 162 | 10.0 | 21.0 | 0.06 | 0.06 | 0.06 | 85 | 1008.4 |
| 20260508210031 | 69 | 155 | 10.0 | 16.0 | 0.06 | 0.06 | 0.06 | 85 | 1008.1 |
| 20260508204538 | 70 | 103 | 3.0 | 6.0 | 0.03 | 0.03 | 0.03 | 79 | 1009.9 |
| 20260508203030 | 70 | 181 | 6.0 | 9.0 | 0.00 | 0.00 | 0.00 | 76 | 1010.2 |
| 20260508201532 | 71 | 208 | 4.0 | 9.0 | 0.00 | 0.00 | 0.00 | 74 | 1010.7 |
| 20260508200032 | 72 | 185 | 6.0 | 13.0 | 0.00 | 0.00 | 0.00 | 71 | 1010.8 |
| 20260508194532 | 71 | 183 | 5.0 | 11.0 | 0.00 | 0.00 | 0.00 | 72 | 1010.6 |
| 20260508193036 | 70 | 165 | 6.0 | 10.0 | 0.00 | 0.00 | 0.00 | 71 | 1010.4 |
| 20260508191533 | 70 | 173 | 5.0 | 10.0 | 0.00 | 0.00 | 0.00 | 71 | 1010.8 |
| 20260508190031 | 70 | 164 | 7.0 | 13.0 | 0.00 | 0.00 | 0.00 | 71 | 1010.9 |
| 20260508184533 | 70 | 191 | 5.0 | 11.0 | 0.00 | 0.00 | 0.00 | 72 | 1011.2 |
| 20260508183030 | 71 | 181 | 7.0 | 13.0 | 0.00 | 0.00 | 0.00 | 70 | 1011.6 |
| 20260508181530 | 71 | 164 | 6.0 | 13.0 | 0.00 | 0.00 | 0.00 | 69 | 1011.7 |
| 20260508180030 | 71 | 157 | 5.0 | 10.0 | 0.00 | 0.00 | 0.00 | 68 | 1011.6 |
| 20260508174536 | 70 | 152 | 5.0 | 9.0 | 0.00 | 0.00 | 0.00 | 69 | 1011.7 |
| 20260508173034 | 70 | 145 | 5.0 | 11.0 | 0.00 | 0.00 | 0.00 | 70 | 1012.1 |
| 20260508171540 | 71 | 146 | 8.0 | 12.0 | 0.00 | 0.00 | 0.00 | 68 | 1012.2 |
| 20260508170032 | 71 | 177 | 7.0 | 13.0 | 0.00 | 0.00 | 0.00 | 68 | 1012.4 |
| 20260508164530 | 71 | 147 | 7.0 | 10.0 | 0.00 | 0.00 | 0.00 | 68 | 1012.5 |
| 20260508163040 | 69 | 120 | 5.0 | 11.0 | 0.00 | 0.00 | 0.00 | 71 | 1012.8 |
| 20260508161531 | 69 | 148 | 6.0 | 9.0 | 0.00 | 0.00 | 0.00 | 71 | 1013.2 |
| 20260508160054 | 68 | 149 | 2.0 | 8.0 | 0.00 | 0.00 | 0.00 | 74 | 1013.3 |
| 20260508154533 | 67 | 175 | 3.0 | 7.0 | 0.00 | 0.00 | 0.00 | 74 | 1013.6 |
| 20260508153033 | 66 | 161 | 4.0 | 8.0 | 0.00 | 0.00 | 0.00 | 74 | 1013.8 |
| 20260508151533 | 66 | 100 | 3.0 | 7.0 | 0.00 | 0.00 | 0.00 | 75 | 1013.9 |
| 20260508150035 | 66 | 140 | 4.0 | 9.0 | 0.00 | 0.00 | 0.00 | 74 | 1013.8 |
| 20260508144534 | 66 | 56 | 3.0 | 7.0 | 0.00 | 0.00 | 0.00 | 74 | 1013.9 |
| 20260508143042 | 66 | 99 | 2.0 | 6.0 | 0.00 | 0.00 | 0.00 | 74 | 1013.9 |
| 20260508141537 | 66 | 87 | 3.0 | 9.0 | 0.00 | 0.00 | 0.00 | 74 | 1013.7 |
| 20260508140030 | 65 | 105 | 3.0 | 8.0 | 0.00 | 0.00 | 0.00 | 77 | 1014.0 |
| 20260508134534 | 64 | 156 | 4.0 | 8.0 | 0.00 | 0.00 | 0.00 | 79 | 1014.1 |
| 20260508133036 | 63 | 139 | 3.0 | 8.0 | 0.00 | 0.00 | 0.00 | 81 | 1014.2 |
| 20260508131530 | 62 | 25 | 0.0 | 2.0 | 0.00 | 0.00 | 0.00 | 86 | 1014.3 |
| 20260508130114 | 61 | 19 | 1.0 | 4.0 | 0.00 | 0.00 | 0.00 | 88 | 1014.2 |
| 20260508124529 | 59 | 360 | 0.0 | 2.0 | 0.00 | 0.00 | 0.00 | 90 | 1014.2 |